DW9665 Sarajevo BA current weather conditions

sailwx.info

Wind from 090 at 2 knots gusting 5

Air temperature 18.3° C
Dewpoint 13.8° C

Last reported at 2014-Jul-29 23:47 UTC.
Time now 2014-Jul-30 01:04 UTC

Location: N 43°50' E 018°21'.
View on Google Maps.

See reports from other nearby stations

  
Tides and Currents Weather Stations Pressure Air Temp Water Temp Dewpoint Dewpoint Depression Visibility Wind Speed Wind Dir Waves Ship Positions
date/time (UTC)wind fromknots sea level pressurealtimeterstation pressurevisibilityair tempwater tempwave heightnotes
2014-Jul-29 23:47 090 2 gusting 5 18.3
2014-Jul-29 23:32 292 18.9
2014-Jul-29 23:17 270 18.9
2014-Jul-29 23:02 135 19.4
2014-Jul-29 22:47 270 0 gusting 2 19.4
2014-Jul-29 22:32 090 19.4
2014-Jul-29 22:17 022 20.0
2014-Jul-29 22:02 135 1 gusting 2 20.0
2014-Jul-29 21:47 158 0 gusting 2 20.6
2014-Jul-29 21:32 180 1 gusting 3 20.6
2014-Jul-29 21:17 158 21.1
2014-Jul-29 21:02 270 1 gusting 2 21.1
2014-Jul-29 20:47 180 21.1
2014-Jul-29 20:32 180 3 gusting 3 21.7
2014-Jul-29 20:17 112 0 gusting 3 22.2
2014-Jul-29 20:02 135 2 gusting 5 22.8
2014-Jul-29 19:47 180 1 gusting 2 22.8
2014-Jul-29 19:32 135 23.3
2014-Jul-29 19:17 135 1 gusting 4 23.3
2014-Jul-29 19:02 158 23.3
2014-Jul-29 18:47 158 23.9
2014-Jul-29 18:32 270 23.9
2014-Jul-29 18:17 338 2 gusting 4 24.4
2014-Jul-29 18:02 292 24.4
2014-Jul-29 17:47 180 1 gusting 3 25.0
2014-Jul-29 17:32 068 25.0
2014-Jul-29 17:17 135 1 gusting 0 25.6
2014-Jul-29 17:02 158 0 gusting 3 25.6
2014-Jul-29 16:47 338 1 gusting 3 26.1
2014-Jul-29 16:32 338 0 gusting 3 26.1
2014-Jul-29 16:17 26.7
2014-Jul-29 16:02 270 1 gusting 2 27.2
2014-Jul-29 15:47 090 27.8
2014-Jul-29 15:32 045 27.8
2014-Jul-29 15:17 270 3 gusting 3 28.3
2014-Jul-29 15:02 090 28.9
2014-Jul-29 14:47 135 0 gusting 2 28.3
2014-Jul-29 14:32 135 0 gusting 4 28.9
2014-Jul-29 14:17 158 0 gusting 4 28.9
2014-Jul-29 14:02 315 0 gusting 4 28.9
2014-Jul-29 13:47 270 1 gusting 5 28.3
2014-Jul-29 13:32 270 0 gusting 5 28.3
2014-Jul-29 13:17 270 1 gusting 3 28.3
2014-Jul-29 13:02 135 0 gusting 5 27.8
2014-Jul-29 12:47 158 0 gusting 4 27.2
2014-Jul-29 12:32 338 3 gusting 5 27.2
2014-Jul-29 12:17 090 27.2
2014-Jul-29 12:02 112 0 gusting 3 27.8
2014-Jul-29 11:47 270 27.2
2014-Jul-29 11:32 112 26.7
2014-Jul-29 11:17 270 2 gusting 3 26.7
2014-Jul-29 11:02 135 0 gusting 2 26.1
2014-Jul-29 10:47 180 25.0
2014-Jul-29 10:32 022 3 gusting 4 25.0
2014-Jul-29 10:17 022 1 gusting 3 24.4
2014-Jul-29 10:02 24.4
2014-Jul-29 09:47 270 23.9
2014-Jul-29 09:32 24.4
2014-Jul-29 09:17 068 0 gusting 3 24.4
2014-Jul-29 09:02 022 1 gusting 3 23.3
2014-Jul-29 08:47 270 1 gusting 3 22.8
2014-Jul-29 08:32 270 0 gusting 3 22.8
2014-Jul-29 08:17 292 2 gusting 8 22.2
2014-Jul-29 08:02 338 21.7
2014-Jul-29 07:47 338 3 gusting 3 21.7
2014-Jul-29 07:32 270 0 gusting 2 21.7
2014-Jul-29 07:17 180 1 gusting 1 21.7
2014-Jul-29 07:02 022 21.1
2014-Jul-29 06:47 292 0 gusting 2 20.0
2014-Jul-29 06:32 270 0 gusting 3 20.0
2014-Jul-29 06:17 135 1 gusting 3 18.9
2014-Jul-29 06:02 112 1 gusting 3 18.3
2014-Jul-29 05:47 135 0 gusting 3 17.2
2014-Jul-29 05:32 112 0 gusting 3 17.2
2014-Jul-29 05:17 135 1 gusting 2 16.7
2014-Jul-29 05:02 292 0 gusting 1 16.7
2014-Jul-29 04:47 180 16.7
2014-Jul-29 04:32 180 16.1
2014-Jul-29 04:17 135 16.1
2014-Jul-29 04:02 292 1 gusting 3 16.1
2014-Jul-29 03:47 270 16.1
2014-Jul-29 03:32 112 2 gusting 2 16.1
2014-Jul-29 03:17 112 16.1
2014-Jul-29 03:02 158 1 gusting 5 16.1
2014-Jul-29 02:47 158 3 gusting 5 16.1
2014-Jul-29 02:32 135 0 gusting 3 16.7
2014-Jul-29 02:17 270 16.7
2014-Jul-29 02:02 135 16.7
2014-Jul-29 01:47 158 0 gusting 3 16.7
2014-Jul-29 01:32 090 1 gusting 3 16.7
2014-Jul-29 01:17 180 1 gusting 3 17.2
2014-Jul-29 01:02 180 2 gusting 1 17.2
2014-Jul-29 00:47 180 17.2
2014-Jul-29 00:32 292 17.2
2014-Jul-29 00:17 292 17.2
2014-Jul-29 00:02 158 2 gusting 2 17.8
2014-Jul-28 23:47 112 17.8
2014-Jul-28 23:32 292 17.8
2014-Jul-28 23:17 270 17.8
2014-Jul-28 23:02 180 0 gusting 2 17.8
2014-Jul-28 22:47 180 17.8
2014-Jul-28 22:32 315 17.8
2014-Jul-28 22:17 090 17.8
2014-Jul-28 22:02 068 0 gusting 1 17.8
2014-Jul-28 21:47 090 18.3
2014-Jul-28 21:32 135 18.3
2014-Jul-28 21:17 135 18.3
2014-Jul-28 21:02 180 18.3
2014-Jul-28 20:47 180 0 gusting 2 18.3
2014-Jul-28 20:32 180 18.3
2014-Jul-28 20:17 270 18.3
2014-Jul-28 20:02 292 18.3
2014-Jul-28 19:47 090 18.9
2014-Jul-28 19:32 292 18.9
2014-Jul-28 19:17 270 18.9
2014-Jul-28 19:02 292 18.9
2014-Jul-28 18:47 022 1 gusting 2 19.4
2014-Jul-28 18:32 135 19.4
2014-Jul-28 18:17 270 19.4
2014-Jul-28 18:02 292 1 gusting 5 19.4
2014-Jul-28 17:47 292 19.4
2014-Jul-28 17:32 292 0 gusting 8 19.4
2014-Jul-28 17:17 180 2 gusting 5 20.0
2014-Jul-28 17:02 270 0 gusting 6 20.0
2014-Jul-28 16:47 292 3 gusting 7 20.6
2014-Jul-28 16:32 270 3 gusting 5 21.1
2014-Jul-28 16:17 270 21.1
2014-Jul-28 16:02 338 1 gusting 3 21.7
2014-Jul-28 15:47 270 22.2
2014-Jul-28 15:32 180 22.2
2014-Jul-28 15:17 135 21.7
2014-Jul-28 15:02 090 21.7
2014-Jul-28 14:47 158 1 gusting 3 21.1
2014-Jul-28 14:32 20.0
2014-Jul-28 14:17 090 2 gusting 3 19.4
2014-Jul-28 13:17 135 3 gusting 8 21.7
2014-Jul-28 13:02 180 5 gusting 8 22.2
2014-Jul-28 12:47 135 4 gusting 7 22.8
2014-Jul-28 12:32 158 5 gusting 6 22.8
2014-Jul-28 12:17 135 2 gusting 5 22.8
2014-Jul-28 12:02 180 3 gusting 3 22.8
2014-Jul-28 11:47 112 22.2
2014-Jul-28 11:32 068 3 gusting 6 22.2
2014-Jul-28 11:17 090 22.8
2014-Jul-28 11:02 045 1 gusting 3 23.3
2014-Jul-28 10:47 022 23.3
2014-Jul-28 10:32 158 2 gusting 3 22.8
2014-Jul-28 10:17 135 23.3
2014-Jul-28 10:02 135 2 gusting 3 22.8
2014-Jul-28 09:47 090 0 gusting 5 22.2
2014-Jul-28 09:32 270 0 gusting 4 21.7
2014-Jul-28 09:17 270 2 gusting 4 21.7
2014-Jul-28 09:02 338 0 gusting 6 21.1
2014-Jul-28 08:47 338 1 gusting 3 21.7
2014-Jul-28 08:32 21.1
2014-Jul-28 08:17 292 0 gusting 1 20.6
2014-Jul-28 08:02 068 20.6
2014-Jul-28 07:47 090 0 gusting 2 19.4
2014-Jul-28 07:32 338 1 gusting 3 18.9
2014-Jul-28 07:17 18.9
2014-Jul-28 07:02 338 1 gusting 4 18.3
2014-Jul-28 06:47 180 1 gusting 3 18.3
2014-Jul-28 06:32 068 18.3
2014-Jul-28 06:17 112 0 gusting 1 17.8
2014-Jul-28 06:02 158 17.8
2014-Jul-28 05:47 270 0 gusting 2 17.2
2014-Jul-28 05:32 180 0 gusting 1 17.2
2014-Jul-28 05:17 270 17.2
2014-Jul-28 05:02 180 17.2
2014-Jul-28 04:47 338 16.7
2014-Jul-28 04:32 270 16.7
2014-Jul-28 04:17 180 16.7
2014-Jul-28 04:02 045 0 gusting 3 16.7
2014-Jul-28 03:47 270 0 gusting 1 16.7
2014-Jul-28 03:32 180 16.7
2014-Jul-28 03:17 180 16.7
2014-Jul-28 03:02 180 16.7
2014-Jul-28 02:47 180 16.7
2014-Jul-28 02:32 270 16.7
2014-Jul-28 02:17 270 0 gusting 3 16.7
2014-Jul-28 02:02 270 0 gusting 3 16.7
2014-Jul-28 01:47 292 1 gusting 1 16.7
2014-Jul-28 01:32 292 16.7
2014-Jul-28 01:17 090 16.7
2014-Jul-28 01:02 270 16.7